Вернуться в каталог

USA 393

АктивенВоенныеVLEO
NORAD 60176·PAYLOAD·🇺🇸 United States

Запущен Jun 29, 2024 с Vandenberg Space Force Base

Loading…

Ближайшие Пролёты (ближайшие 24 часа)

TLE

УстаревшееSource: Mike McCants

Эпоха: Aug 23, 2026, 01:18 UTC

1 60176U 24121U   26235.05469847 0.00000000  00000-0  00000-0 0    04
2 60176  70.0222 219.1768 0003000 272.0079  87.9920 14.96713104    00

Отслеживайте USA 393 в реальном времени с AllMySat

Download on the App Store